Location: Chimay
(50.0486°N, 4.3171°E)
Time: 16:31:47
(UTC+00:00)

NOSS 3-2 (A) - Pass Details

Date: 08 August 2020
Orbit: 796 x 1412 km, 63.4° (Epoch: 16 September)

Event Time Altitude Azimuth Distance (km) Brightness Sun altitude
Rises 21:24:46 0° 207° (SSW) 3,360 6.1 -17.0°
Reaches altitude 10° 21:27:06 10° 204° (SSW) 2,476 5.3 -17.2°
Maximum altitude 21:32:43 62° 125° (SE) 1,038 3.4 -17.7°
Drops below altitude 10° 21:39:11 10° 47° (NE) 2,841 6.1 -18.3°
Sets 21:42:02 0° 44° (NE) 3,895 6.8 -18.5°
